Zurück zum Katalog

FENGYUN 1C DEB

AktivSSO
NORAD 30666·DEBRIS·🇨🇳 China

Gestartet May 10, 1999 von Taiyuan Satellite Launch Center

Loading…

Nächste Überflüge (nächste 24 Stunden)

TLE

AktuellSource: Space-Track

Epoche: Sep 14, 2026, 10:07 UTC

1 30666U 99025APY 26257.42184008  .00000344  00000-0  24536-3 0  9999
2 30666  98.8499 237.9308 0061753  95.6580  57.0292 14.02801917999754

Verfolge FENGYUN 1C DEB in Echtzeit mit AllMySat

Download on the App Store